Location: Calgary
(51.0833°N, 114.0833°W)
Time: 08:15:48
(UTC-07:00)

OTV 5 (USA 277) - Visible Passes

Search period start: 21 February 2018 00:00
Search period end: 03 March 2018 00:00
Orbit: 404 x 417 km, 43.0° (Epoch: 07 September)

Date Brightness Start Highest point End Pass type
(mag) Time Alt. Az. Time Alt. Az. Time Alt. Az.
22 Feb ? 06:26:32 10° S 06:28:08 13° SSE 06:29:45 10° SE visible
23 Feb ? 05:36:40 10° SSE 05:37:17 10° SSE 05:37:54 10° SE visible
24 Feb ? 06:20:38 10° SW 06:22:55 18° S 06:25:13 10° SE visible
25 Feb ? 05:31:35 15° S 05:32:02 16° SSE 05:34:05 10° SE visible
26 Feb ? 06:15:37 12° SW 06:17:46 20° S 06:20:16 10° SE visible
27 Feb ? 05:26:53 19° S 05:26:53 19° S 05:29:18 10° SE visible
28 Feb ? 04:38:08 11° SE 04:38:08 11° SE 04:38:16 10° SE visible
28 Feb ? 06:10:53 13° SW 06:12:37 19° S 06:15:01 10° SE visible
01 Mar ? 05:22:09 19° S 05:22:09 19° S 05:24:12 10° SE visible
02 Mar ? 06:06:11 13° SW 06:07:26 15° SSW 06:09:23 10° SSE visible
